Location: Strawberry
(45.6646°N, 111.9596°W)
Time: 16:35:04
(UTC+00:00)

SR - Pass Details

Date: 11 October 2022
Orbit: 577 x 874 km, 66.7° (Epoch: 05 December)

Event Time Altitude Azimuth Distance (km) Brightness Sun altitude
Exits shadow 10:25:52 22° 112° (ESE) 1,543 ? -33.6°
Drops below altitude 10° 10:27:39 10° 123° (ESE) 2,157 ? -33.4°
Sets 10:29:58 0° 130° (SE) 3,022 ? -33.0°
